Location: Killam
(52.7910°N, 111.8608°W)
Time: 00:04:05
(UTC+00:00)

Gurwin Techsat 1B - Pass Details

Date: 14 March 2026
Orbit: 809 x 812 km, 99.0° (Epoch: 14 April)

Event Time Altitude Azimuth Distance (km) Brightness Sun altitude
Rises 12:51:52 0° 16° (NNE) 3,344 12.1 -8.7°
Reaches altitude 10° 12:54:13 10° 17° (NNE) 2,408 11.4 -8.3°
Maximum altitude 12:59:33 86° 107° (ESE) 819 8.7 -7.5°
Drops below altitude 10° 13:04:51 10° 196° (SSW) 2,390 10.9 -6.7°
Sets 13:07:11 0° 197° (SSW) 3,317 11.6 -6.4°
